Find Starlink 11566

NORAD ID: 62914 Int'l Des: 2025-027 Owner: SPXS Country: US Constellation: starlink operational
LEOCIRCULAR

实时位置

正在加载3D地球...

关于 Starlink 11566

正在加载描述...

即将过境

Passes for default location (London). Set your location on the main map for personalized predictions.

高度历史

Loading altitude history...

两行轨道根数

1 62914U 25027H 26125.37050069 .00246260 00000-0 18599-2 0 9998
2 62914 43.0014 6.2683 0001340 31.7810 328.3138 15.70923034 72101
Epoch: May 5, 2026 • Age: 10 hours

当前状态

高度 355.9 km
速度 7.70 km/s
星下点 25.74°N, 9.6°E
发射日期 Feb 8, 2025
运行时间 1.2 years
类型 internet

技术详情

分类 Payload
质量 960.00 kg
干质量 910.00 kg
总质量 960.00 kg
长度 0.30 m
直径 4.10 m
跨度 29.00 m
形状 Box + pan
制造商 SPXS
平台类型 Starlink V2MD
阶段状态 In Orbit
所有者/国家 SPXS/US

Most Searched